OBJECT E, 62733

Orbit data source: Space-Track

You're viewing an Uncataloged Satellite

Recently launched and/or uncataloged satellites may have evolving metadata. Metadata may include but not limited to: Owner, Maufacturer, Bus, Motor, and Mission.

OBJECT E, 62733 is a Chinese satellite in SSO that was launched on Mon, 20 Jan 2025 UTC via a GUSHENXING 1 launch vehicle from the Jiuquan Satellite Launch Center, China (JSC). Unknown objects in Earth's orbit typically refer to objects detected orbiting the Earth but have not yet been identified or cataloged. These objects could be anything from previously untracked satellites, spent rocket stages, debris from satellite collisions, or even natural meteoroids temporarily captured by Earth's gravity.

Loading next visibility...
OBJECT E details
Identifier
62733, 2025-013E
Orbit
SSO
Last TLE update10 hours ago
Origin
Flag of CNJTXZ (CN / PRC)
ManufacturerZKRG
MissionOperational spacecraft
Bus & MotorXINGYUN-01, Unknown motor
Mass~50 kg wet, ~50 kg dry
Launch date (UTC)
2025-01-20 (1 month ago)
Launch vehicle
GUSHENXING 1
Launch site
Jiuquan Satellite Launch Center, China (JSC)
Object typeUnknown
Shape & HBRUnknown
Radar Cross SectionMedium (>0.1 m² and <1 m²)

Expand to show TLE details & history

TLE from 10 hours ago
0 OBJECT E
1 62733U 25013E   25047.11499878  .00009715  00000-0  60528-3 0  9993
2 62733  97.6123 214.0105 0013803 194.4387 165.6450 15.09693123  3925
Epoch: 2025-02-16T02:45Z
Definitive object data (Epoch: 2025-02-16T02:45:35.894Z)
Latitude0.00002°
Longitude26.25824°
Altitude549.457 km
Speed7.582 km/s
True Right ascension14h 16m 02s
True Declination0° 00' 00"
Sunlit
Object was in full shadow at TLE epoch
Visualization TLE readout
Latitude63.23642°
Longitude-138.04535°
Altitude545.872 km
Speed7.596 km/s
Apparent Right ascension03h 29m 03s
Apparent Declination14° 35' 50"
Sunlit
Object is in daylight
Visualization observer readout
Local Sidereal Time15:35:34
Azimuth1.938° NNE
Elevation-35.466°
Doppler factor1
Orbital elements
Apogee altitude543.666 km
Perigee altitude524.584 km
Semi-major axis6,912.262 km
Eccentricity0.0013803
Inclination97.6123°
RAAN214.0105°
Arg. of periapsis194.4387°
True anomaly165.68415°
Mean anomaly165.645°
Eccentric anomaly165.66458°
Mean motion3.7767 °/min
BSTAR0.00060528
Orbital period95.32 mins
Loading maneuver chart data...
Loading historical data...
Loading historical data...
Loading historical data...
Loading historical data...
Loading historical data...
Loading historical data...
Loading historical data...
Other satellites on launch #13 in the year 2025 (2025-01-20 UTC)

OBJECT E Visibility forecast

Observer location: undefined°, undefined

Span
Click to sort rows by Start time (UTC) header in descending order
Start Az.
Max El. time (UTC)
Max El. Az.
Max El.
End time (UTC)
End Az.
7 mins2025-02-16 23:59:59.280Z7.761° NNE2025-02-17 00:02:59.280Z329.367° NNW42.835°2025-02-17 00:06:59.280Z199.313° SSW
6 mins2025-02-17 10:42:59.280Z141.494° SSE2025-02-17 10:44:59.280Z96.801° ESE36.106°2025-02-17 10:48:59.280Z359.827° N
|